ENT8DT LGZA-EPWA

Flight info

Callsign ENT8DT
Flight time 2h 18m
Altitude 24000
Route OSDES Y302 GARTA/N0427F320 UL611 YNN/N0439F360 UL611 TUMBO DCT ALELU DCT PARAK/N0434F370 DCT KOVEK DCT LENOV/N0433F380 DCT ORTEB DCT KONZI DCT LOGDA
Aircraft B738/M-SDE2E3FGHIRWXY/LB1

Departure

Time 2026-05-05 16:02
Airport Zakynthos International Airport Dionysios Solomos (LGZA)

Arrival

Time 2026-05-05 18:20
Airport Warsaw Chopin Airport (EPWA)
Time Latitude Longitude Altitude Speed Heading
2026-05-05 15:42 37.75330 20.88553 19 ft 0 kts 74°
2026-05-05 15:53 37.75326 20.88536 19 ft 4 kts 75°
2026-05-05 15:53 37.75319 20.88503 19 ft 4 kts 71°
2026-05-05 15:54 37.75308 20.88475 22 ft 4 kts 35°
2026-05-05 15:54 37.75298 20.88469 22 ft 0 kts 344°
2026-05-05 15:57 37.75301 20.88468 21 ft 2 kts 344°
2026-05-05 15:57 37.75324 20.88459 19 ft 5 kts 344°
2026-05-05 15:58 37.75372 20.88442 20 ft 9 kts 344°
2026-05-05 15:58 37.75436 20.88417 19 ft 10 kts 342°
2026-05-05 15:58 37.75476 20.88355 22 ft 9 kts 291°
2026-05-05 15:58 37.75503 20.88280 20 ft 9 kts 309°
2026-05-05 15:59 37.75562 20.88252 20 ft 9 kts 343°
2026-05-05 15:59 37.75621 20.88229 21 ft 9 kts 343°
2026-05-05 15:59 37.75677 20.88207 22 ft 9 kts 342°
2026-05-05 15:59 37.75733 20.88186 22 ft 8 kts 344°
2026-05-05 16:00 37.75788 20.88166 23 ft 8 kts 343°
2026-05-05 16:00 37.75840 20.88147 21 ft 8 kts 343°
2026-05-05 16:00 37.75891 20.88128 21 ft 8 kts 343°
2026-05-05 16:00 37.75941 20.88109 20 ft 7 kts 343°
2026-05-05 16:01 37.75989 20.88088 19 ft 7 kts 331°
2026-05-05 16:01 37.76024 20.88046 19 ft 7 kts 317°
2026-05-05 16:01 37.76037 20.88070 19 ft 7 kts 152°
2026-05-05 16:01 37.75970 20.88097 20 ft 25 kts 162°
2026-05-05 16:02 37.75534 20.88262 20 ft 104 kts 163°
2026-05-05 16:02 37.74617 20.88601 93 ft 161 kts 166°
2026-05-05 16:02 37.73513 20.88989 790 ft 168 kts 166°
2026-05-05 16:02 37.72354 20.89401 1416 ft 184 kts 166°
2026-05-05 16:03 37.71013 20.89883 1748 ft 213 kts 166°
2026-05-05 16:03 37.69549 20.90412 2309 ft 223 kts 165°
2026-05-05 16:03 37.68031 20.90961 2927 ft 230 kts 165°
2026-05-05 16:03 37.66468 20.91526 3627 ft 237 kts 165°
2026-05-05 16:04 37.64878 20.92099 4473 ft 238 kts 165°
2026-05-05 16:04 37.63818 20.92479 4987 ft 241 kts 165°
2026-05-05 16:04 37.62193 20.93062 5773 ft 244 kts 164°
2026-05-05 16:04 37.60552 20.93650 6548 ft 247 kts 164°
2026-05-05 16:05 37.58890 20.94245 7261 ft 251 kts 163°
2026-05-05 16:05 37.57152 20.94567 7863 ft 260 kts 188°
2026-05-05 16:05 37.55431 20.93684 8112 ft 280 kts 222°
2026-05-05 16:05 37.54247 20.91719 8668 ft 286 kts 250°
2026-05-05 16:06 37.53882 20.89277 9403 ft 285 kts 277°
2026-05-05 16:06 37.54431 20.86945 10182 ft 282 kts 304°
2026-05-05 16:06 37.55834 20.85156 10604 ft 295 kts 330°
2026-05-05 16:06 37.57817 20.84336 10794 ft 317 kts 354°
2026-05-05 16:07 37.60063 20.84573 11212 ft 332 kts 10°
2026-05-05 16:07 37.62364 20.85003 11875 ft 336 kts
2026-05-05 16:07 37.64695 20.85236 12693 ft 336 kts
2026-05-05 16:07 37.67036 20.85432 13468 ft 339 kts
2026-05-05 16:08 37.69399 20.85632 14185 ft 342 kts
2026-05-05 16:08 37.71789 20.85848 14811 ft 346 kts
2026-05-05 16:08 37.74203 20.86077 15465 ft 349 kts
2026-05-05 16:08 37.76638 20.86318 16124 ft 353 kts
2026-05-05 16:09 37.79098 20.86568 16759 ft 356 kts
2026-05-05 16:09 37.81584 20.86824 17363 ft 361 kts
2026-05-05 16:09 37.84099 20.87086 17960 ft 365 kts
2026-05-05 16:09 37.86640 20.87352 18561 ft 368 kts
2026-05-05 16:10 37.89203 20.87621 19108 ft 371 kts
2026-05-05 16:10 37.91778 20.87892 19679 ft 373 kts
2026-05-05 16:10 37.94378 20.88166 20226 ft 376 kts
2026-05-05 16:10 37.96993 20.88442 20758 ft 379 kts
2026-05-05 16:11 37.99629 20.88720 21276 ft 382 kts
2026-05-05 16:11 38.07628 20.89564 22786 ft 390 kts
2026-05-05 16:12 38.10340 20.89851 23272 ft 393 kts
2026-05-05 16:12 38.15836 20.90433 24138 ft 399 kts
2026-05-05 16:13 38.24147 20.91317 25502 ft 401 kts 360°
2026-05-05 16:13 38.26938 20.91613 25921 ft 402 kts 360°
2026-05-05 16:13 38.29733 20.91910 26328 ft 404 kts 360°
2026-05-05 16:14 38.35352 20.92508 27131 ft 407 kts 360°
2026-05-05 16:14 38.41006 20.92971 27880 ft 408 kts 357°
2026-05-05 16:15 38.46700 20.93294 28630 ft 411 kts 357°
2026-05-05 16:15 38.52432 20.93646 29332 ft 414 kts 357°
2026-05-05 16:16 38.58197 20.94010 30090 ft 414 kts 356°
2026-05-05 16:16 38.63750 20.93007 30905 ft 400 kts 342°
2026-05-05 16:17 38.69106 20.91275 31788 ft 394 kts 342°
2026-05-05 16:17 38.71763 20.90426 32193 ft 393 kts 343°
2026-05-05 16:18 38.77040 20.88756 33021 ft 388 kts 343°
2026-05-05 16:18 38.79650 20.87935 33430 ft 386 kts 343°
2026-05-05 16:18 38.84840 20.86303 34165 ft 382 kts 343°
2026-05-05 16:19 38.87418 20.85492 34436 ft 381 kts 343°
2026-05-05 16:19 38.90002 20.84678 34607 ft 383 kts 343°
2026-05-05 16:19 38.95200 20.83039 35017 ft 385 kts 343°
2026-05-05 16:20 39.00415 20.81393 35345 ft 388 kts 342°
2026-05-05 16:20 39.05682 20.79728 35634 ft 392 kts 342°
2026-05-05 16:21 39.10981 20.78051 36039 ft 392 kts 342°
2026-05-05 16:22 39.18954 20.75523 36102 ft 394 kts 342°
2026-05-05 16:23 39.29523 20.72166 36115 ft 388 kts 342°
2026-05-05 16:23 39.37381 20.69660 36110 ft 386 kts 342°
2026-05-05 16:24 39.42589 20.67996 36108 ft 385 kts 342°
2026-05-05 16:25 39.50411 20.65491 36122 ft 387 kts 341°
2026-05-05 16:25 39.58298 20.62959 36111 ft 392 kts 341°
2026-05-05 16:26 39.68946 20.59534 36118 ft 396 kts 341°
2026-05-05 16:27 39.74271 20.57818 36112 ft 397 kts 341°
2026-05-05 16:27 39.79636 20.56087 36096 ft 396 kts 341°
2026-05-05 16:28 39.84952 20.54368 36114 ft 393 kts 341°
2026-05-05 16:28 39.90241 20.52654 36120 ft 391 kts 341°
2026-05-05 16:29 39.95508 20.50944 36122 ft 390 kts 341°
2026-05-05 16:29 40.00766 20.49234 36112 ft 389 kts 341°
2026-05-05 16:30 40.06011 20.47527 36117 ft 388 kts 341°
2026-05-05 16:30 40.11323 20.46051 36106 ft 391 kts 344°
2026-05-05 16:31 40.16689 20.44757 36110 ft 392 kts 344°
2026-05-05 16:31 40.22005 20.43471 36109 ft 390 kts 343°
2026-05-05 16:32 40.27343 20.42155 36099 ft 390 kts 344°
2026-05-05 16:32 40.32700 20.40820 36105 ft 389 kts 343°
2026-05-05 16:33 40.37979 20.39497 36113 ft 389 kts 343°
2026-05-05 16:33 40.43288 20.38164 36080 ft 387 kts 343°
2026-05-05 16:34 40.48563 20.36839 36090 ft 386 kts 343°
2026-05-05 16:34 40.53836 20.35511 36112 ft 385 kts 343°
2026-05-05 16:35 40.59106 20.34181 36117 ft 386 kts 343°
2026-05-05 16:35 40.64404 20.32841 36112 ft 388 kts 343°
2026-05-05 16:36 40.69717 20.31496 36109 ft 389 kts 343°
2026-05-05 16:36 40.75026 20.30154 36094 ft 387 kts 343°
2026-05-05 16:37 40.80320 20.28810 36118 ft 387 kts 343°
2026-05-05 16:37 40.85614 20.27462 36103 ft 388 kts 343°
2026-05-05 16:38 40.90925 20.26110 36107 ft 389 kts 343°
2026-05-05 16:38 40.96240 20.24754 36109 ft 389 kts 343°
2026-05-05 16:39 41.01579 20.23390 36111 ft 390 kts 343°
2026-05-05 16:39 41.06878 20.22035 36100 ft 391 kts 343°
2026-05-05 16:40 41.12215 20.20670 36106 ft 388 kts 343°
2026-05-05 16:40 41.17483 20.19315 36090 ft 388 kts 343°
2026-05-05 16:41 41.22764 20.17956 36142 ft 386 kts 343°
2026-05-05 16:41 41.28070 20.16589 36110 ft 390 kts 343°
2026-05-05 16:42 41.33416 20.15208 36105 ft 393 kts 343°
2026-05-05 16:42 41.38799 20.13816 36107 ft 395 kts 343°
2026-05-05 16:43 41.44217 20.12413 36113 ft 398 kts 343°
2026-05-05 16:43 41.49674 20.10998 36099 ft 400 kts 343°
2026-05-05 16:44 41.55152 20.09576 36096 ft 402 kts 343°
2026-05-05 16:44 41.60644 20.08147 36089 ft 402 kts 343°
2026-05-05 16:45 41.66099 20.06727 36109 ft 402 kts 343°
2026-05-05 16:45 41.71583 20.05294 36101 ft 401 kts 343°
2026-05-05 16:46 41.77062 20.03862 36086 ft 400 kts 343°
2026-05-05 16:46 41.82529 20.02427 36082 ft 400 kts 343°
2026-05-05 16:47 41.87989 20.00994 36092 ft 400 kts 343°
2026-05-05 16:47 41.93446 19.99560 36096 ft 399 kts 343°
2026-05-05 16:48 41.98938 19.98111 36156 ft 406 kts 343°
2026-05-05 16:48 42.04536 19.96632 36360 ft 411 kts 343°
2026-05-05 16:49 42.07297 19.95904 36682 ft 409 kts 344°
2026-05-05 16:49 42.10091 19.95166 36827 ft 410 kts 344°
2026-05-05 16:49 42.12900 19.94423 36979 ft 412 kts 344°
2026-05-05 16:49 42.15709 19.93679 37216 ft 411 kts 344°
2026-05-05 16:50 42.18512 19.92937 37486 ft 408 kts 345°
2026-05-05 16:50 42.21289 19.92200 37702 ft 407 kts 345°
2026-05-05 16:50 42.24075 19.91459 37821 ft 409 kts 345°
2026-05-05 16:50 42.26867 19.90716 37987 ft 409 kts 345°
2026-05-05 16:51 42.32463 19.89225 38084 ft 412 kts 345°
2026-05-05 16:51 42.38087 19.87725 38069 ft 411 kts 345°
2026-05-05 16:52 42.42755 19.86479 38061 ft 411 kts 345°
2026-05-05 16:52 42.49310 19.85112 38071 ft 412 kts 356°
2026-05-05 16:53 42.55047 19.85450 38071 ft 412 kts 359°
2026-05-05 16:53 42.59839 19.85796 38051 ft 411 kts 359°
2026-05-05 16:54 42.65545 19.86185 38067 ft 412 kts 358°
2026-05-05 16:54 42.71319 19.86553 38063 ft 418 kts 359°
2026-05-05 16:55 42.77133 19.86916 38048 ft 423 kts 359°
2026-05-05 16:55 42.83033 19.87286 38044 ft 426 kts 359°
2026-05-05 16:56 42.88950 19.87658 38020 ft 423 kts 359°
2026-05-05 16:56 42.94778 19.88029 38013 ft 416 kts 359°
2026-05-05 16:57 43.00566 19.88394 38022 ft 415 kts 359°
2026-05-05 16:57 43.06333 19.88756 38014 ft 415 kts 359°
2026-05-05 16:58 43.12091 19.89119 38004 ft 415 kts 359°
2026-05-05 16:58 43.17823 19.89481 38014 ft 415 kts 359°
2026-05-05 16:59 43.23605 19.89848 38019 ft 416 kts 359°
2026-05-05 16:59 43.29403 19.90216 38008 ft 418 kts 359°
2026-05-05 17:00 43.35224 19.90586 38007 ft 419 kts 359°
2026-05-05 17:00 43.41058 19.90960 38003 ft 419 kts 359°
2026-05-05 17:01 43.46897 19.91332 37984 ft 421 kts 359°
2026-05-05 17:01 43.52771 19.91708 37991 ft 423 kts 359°
2026-05-05 17:02 43.58659 19.92086 37983 ft 424 kts 359°
2026-05-05 17:02 43.64568 19.92465 37987 ft 426 kts 359°
2026-05-05 17:03 43.70462 19.92845 37974 ft 427 kts 359°
2026-05-05 17:03 43.76405 19.93229 37973 ft 428 kts 359°
2026-05-05 17:04 43.82348 19.93615 37970 ft 428 kts 359°
2026-05-05 17:04 43.88293 19.94001 37966 ft 427 kts 359°
2026-05-05 17:05 43.94230 19.94387 37956 ft 426 kts 359°
2026-05-05 17:05 44.00147 19.94772 37954 ft 425 kts 359°
2026-05-05 17:06 44.06052 19.95157 37951 ft 425 kts 359°
2026-05-05 17:06 44.11949 19.95542 37961 ft 423 kts 359°
2026-05-05 17:07 44.17840 19.95928 37933 ft 424 kts 359°
2026-05-05 17:07 44.23722 19.96313 37942 ft 424 kts 360°
2026-05-05 17:08 44.29618 19.96701 37944 ft 424 kts 360°
2026-05-05 17:08 44.35479 19.97198 37940 ft 425 kts
2026-05-05 17:09 44.41423 19.97780 37944 ft 426 kts
2026-05-05 17:09 44.47303 19.98352 37933 ft 426 kts
2026-05-05 17:10 44.53225 19.98916 37930 ft 427 kts
2026-05-05 17:10 44.59166 19.99476 37942 ft 427 kts
2026-05-05 17:11 44.65106 20.00035 37926 ft 428 kts
2026-05-05 17:11 44.71051 20.00596 37938 ft 428 kts
2026-05-05 17:12 44.77002 20.01159 37941 ft 429 kts
2026-05-05 17:12 44.82963 20.01725 37936 ft 429 kts
2026-05-05 17:13 44.88929 20.02291 37931 ft 430 kts
2026-05-05 17:13 44.94859 20.02856 37931 ft 430 kts
2026-05-05 17:14 45.00832 20.03426 37929 ft 430 kts
2026-05-05 17:14 45.06801 20.03997 37927 ft 430 kts
2026-05-05 17:15 45.12784 20.04570 37931 ft 430 kts
2026-05-05 17:15 45.18759 20.05144 37934 ft 430 kts
2026-05-05 17:16 45.24736 20.05719 37926 ft 430 kts
2026-05-05 17:16 45.30716 20.06296 37929 ft 431 kts
2026-05-05 17:17 45.36687 20.06873 37926 ft 431 kts
2026-05-05 17:17 45.42634 20.07449 37922 ft 431 kts
2026-05-05 17:18 45.48617 20.08029 37932 ft 431 kts
2026-05-05 17:18 45.54609 20.08612 37929 ft 431 kts
2026-05-05 17:19 45.60598 20.09196 37940 ft 432 kts
2026-05-05 17:19 45.66591 20.09781 37925 ft 432 kts
2026-05-05 17:20 45.72604 20.10369 37923 ft 433 kts
2026-05-05 17:20 45.78619 20.10959 37928 ft 433 kts
2026-05-05 17:21 45.84642 20.11551 37923 ft 434 kts
2026-05-05 17:22 45.93692 20.12444 37923 ft 435 kts
2026-05-05 17:22 45.99737 20.13041 37929 ft 436 kts
2026-05-05 17:23 46.05751 20.13637 37929 ft 436 kts
2026-05-05 17:23 46.11821 20.14239 37923 ft 437 kts
2026-05-05 17:24 46.17890 20.14843 37922 ft 437 kts
2026-05-05 17:24 46.23958 20.15448 37930 ft 438 kts
2026-05-05 17:25 46.30042 20.16056 37919 ft 438 kts
2026-05-05 17:25 46.36119 20.16665 37924 ft 438 kts
2026-05-05 17:26 46.42194 20.17275 37927 ft 437 kts
2026-05-05 17:26 46.48266 20.17886 37922 ft 437 kts
2026-05-05 17:27 46.54336 20.18498 37920 ft 437 kts
2026-05-05 17:27 46.60401 20.19111 37918 ft 437 kts
2026-05-05 17:28 46.66428 20.19721 37922 ft 436 kts
2026-05-05 17:28 46.72482 20.20336 37913 ft 436 kts
2026-05-05 17:29 46.78536 20.20952 37910 ft 436 kts
2026-05-05 17:29 46.84587 20.21569 37918 ft 436 kts
2026-05-05 17:30 46.90631 20.22186 37909 ft 436 kts
2026-05-05 17:30 46.96682 20.22806 37908 ft 435 kts
2026-05-05 17:31 47.02723 20.23426 37910 ft 435 kts
2026-05-05 17:31 47.08770 20.24048 37906 ft 435 kts
2026-05-05 17:32 47.14816 20.24672 37910 ft 435 kts
2026-05-05 17:32 47.20860 20.25297 37914 ft 435 kts
2026-05-05 17:33 47.26899 20.25922 37920 ft 435 kts
2026-05-05 17:33 47.32955 20.26551 37908 ft 436 kts
2026-05-05 17:34 47.39001 20.27180 37906 ft 436 kts
2026-05-05 17:34 47.45023 20.27809 37906 ft 436 kts
2026-05-05 17:35 47.51116 20.28446 37909 ft 437 kts
2026-05-05 17:35 47.57147 20.29078 37909 ft 437 kts
2026-05-05 17:36 47.63212 20.29715 37910 ft 437 kts
2026-05-05 17:36 47.69287 20.30354 37910 ft 437 kts
2026-05-05 17:37 47.75364 20.30996 37914 ft 437 kts
2026-05-05 17:37 47.81438 20.31638 37909 ft 437 kts
2026-05-05 17:38 47.87509 20.32282 37913 ft 437 kts
2026-05-05 17:38 47.93541 20.32923 37927 ft 437 kts
2026-05-05 17:39 47.99618 20.33570 37913 ft 438 kts
2026-05-05 17:39 48.05699 20.34220 37920 ft 438 kts
2026-05-05 17:40 48.11775 20.34870 37915 ft 437 kts
2026-05-05 17:40 48.17840 20.35521 37924 ft 437 kts
2026-05-05 17:41 48.23916 20.36174 37917 ft 437 kts
2026-05-05 17:41 48.28960 20.36718 37922 ft 437 kts
2026-05-05 17:42 48.35024 20.37373 37922 ft 437 kts
2026-05-05 17:42 48.41086 20.38029 37927 ft 437 kts
2026-05-05 17:43 48.47151 20.38687 37927 ft 437 kts
2026-05-05 17:43 48.53212 20.39347 37925 ft 437 kts
2026-05-05 17:44 48.59278 20.40008 37939 ft 437 kts
2026-05-05 17:44 48.65345 20.40672 37928 ft 437 kts
2026-05-05 17:45 48.71418 20.41337 37926 ft 437 kts
2026-05-05 17:45 48.77483 20.42003 37931 ft 437 kts
2026-05-05 17:46 48.83549 20.42671 37936 ft 437 kts
2026-05-05 17:46 48.89569 20.43335 37926 ft 437 kts
2026-05-05 17:47 48.95669 20.44011 37918 ft 436 kts
2026-05-05 17:47 49.01685 20.44678 37915 ft 436 kts
2026-05-05 17:48 49.07741 20.45351 37918 ft 437 kts
2026-05-05 17:48 49.13799 20.46026 37910 ft 437 kts
2026-05-05 17:49 49.19873 20.46705 37916 ft 438 kts
2026-05-05 17:49 49.25951 20.47385 37920 ft 438 kts
2026-05-05 17:50 49.32036 20.48068 37916 ft 439 kts
2026-05-05 17:50 49.38126 20.48754 37897 ft 439 kts
2026-05-05 17:51 49.44224 20.49442 37907 ft 440 kts
2026-05-05 17:51 49.50331 20.50133 37883 ft 440 kts
2026-05-05 17:52 49.56440 20.50825 37909 ft 440 kts
2026-05-05 17:52 49.62551 20.51520 37891 ft 441 kts
2026-05-05 17:53 49.68676 20.52219 37871 ft 442 kts
2026-05-05 17:53 49.74778 20.52916 37504 ft 443 kts
2026-05-05 17:53 49.77871 20.53271 37220 ft 437 kts
2026-05-05 17:54 49.80881 20.53618 36936 ft 431 kts
2026-05-05 17:54 49.83825 20.53957 36667 ft 427 kts
2026-05-05 17:54 49.86780 20.54296 36404 ft 425 kts
2026-05-05 17:54 49.89713 20.54633 36128 ft 423 kts
2026-05-05 17:55 49.92639 20.54970 35880 ft 421 kts
2026-05-05 17:55 49.95560 20.55306 35623 ft 419 kts
2026-05-05 17:55 49.98464 20.55641 35375 ft 418 kts
2026-05-05 17:55 50.01361 20.55976 35125 ft 417 kts
2026-05-05 17:56 50.04251 20.56310 34876 ft 416 kts
2026-05-05 17:56 50.07135 20.56644 34608 ft 413 kts
2026-05-05 17:56 50.09985 20.56976 34284 ft 409 kts
2026-05-05 17:56 50.12817 20.57288 33859 ft 408 kts
2026-05-05 17:57 50.15606 20.57576 33453 ft 405 kts
2026-05-05 17:57 50.18391 20.57857 33061 ft 402 kts
2026-05-05 17:57 50.21195 20.58139 32687 ft 399 kts
2026-05-05 17:57 50.23943 20.58418 32130 ft 397 kts
2026-05-05 17:58 50.26686 20.58698 32016 ft 392 kts
2026-05-05 17:58 50.29398 20.58977 31611 ft 390 kts
2026-05-05 17:58 50.32103 20.59255 31269 ft 390 kts
2026-05-05 17:58 50.34819 20.59535 30916 ft 394 kts
2026-05-05 17:59 50.37547 20.59817 30556 ft 392 kts
2026-05-05 17:59 50.40260 20.60099 30205 ft 389 kts
2026-05-05 17:59 50.42963 20.60380 29841 ft 387 kts
2026-05-05 17:59 50.45644 20.60659 29448 ft 385 kts
2026-05-05 18:00 50.48299 20.60935 29058 ft 382 kts
2026-05-05 18:00 50.50940 20.61210 28704 ft 378 kts
2026-05-05 18:00 50.53554 20.61483 28334 ft 375 kts
2026-05-05 18:00 50.56143 20.61753 27983 ft 371 kts
2026-05-05 18:01 50.58714 20.62022 27610 ft 369 kts
2026-05-05 18:01 50.61263 20.62288 27250 ft 367 kts
2026-05-05 18:01 50.63806 20.62553 26894 ft 366 kts
2026-05-05 18:01 50.66342 20.62818 26544 ft 364 kts
2026-05-05 18:02 50.68866 20.63083 26201 ft 363 kts
2026-05-05 18:02 50.71380 20.63346 25859 ft 362 kts
2026-05-05 18:02 50.73876 20.63872 25470 ft 364 kts 12°
2026-05-05 18:02 50.76310 20.64954 25123 ft 363 kts 14°
2026-05-05 18:03 50.78724 20.66093 24754 ft 362 kts 15°
2026-05-05 18:03 50.81102 20.67223 24416 ft 360 kts 15°
2026-05-05 18:03 50.83489 20.68351 24090 ft 358 kts 14°
2026-05-05 18:03 50.85874 20.69467 23767 ft 356 kts 14°
2026-05-05 18:04 50.88242 20.70567 23452 ft 354 kts 14°
2026-05-05 18:04 50.90598 20.71657 23090 ft 352 kts 14°
2026-05-05 18:04 50.92941 20.72737 22698 ft 350 kts 14°
2026-05-05 18:04 50.95279 20.73813 22305 ft 349 kts 14°
2026-05-05 18:05 50.97610 20.74887 21899 ft 347 kts 14°
2026-05-05 18:05 50.99925 20.75953 21409 ft 345 kts 14°
2026-05-05 18:05 51.02234 20.77017 20865 ft 346 kts 14°
2026-05-05 18:05 51.04545 20.78083 20343 ft 346 kts 14°
2026-05-05 18:06 51.06853 20.79148 19862 ft 345 kts 14°
2026-05-05 18:06 51.08374 20.79851 19552 ft 344 kts 14°
2026-05-05 18:06 51.11446 20.81272 18959 ft 342 kts 14°
2026-05-05 18:06 51.13728 20.82329 18522 ft 341 kts 13°
2026-05-05 18:07 51.15998 20.83382 18131 ft 338 kts 13°
2026-05-05 18:07 51.18249 20.84427 17660 ft 336 kts 13°
2026-05-05 18:07 51.20489 20.85467 17175 ft 334 kts 13°
2026-05-05 18:07 51.22716 20.86502 16505 ft 339 kts 14°
2026-05-05 18:08 51.24987 20.87557 15972 ft 340 kts 14°
2026-05-05 18:08 51.27250 20.88612 15520 ft 337 kts 14°
2026-05-05 18:08 51.29494 20.89659 15085 ft 336 kts 14°
2026-05-05 18:08 51.31761 20.90717 14527 ft 343 kts 14°
2026-05-05 18:09 51.34057 20.91789 14117 ft 344 kts 14°
2026-05-05 18:09 51.36348 20.92861 13812 ft 341 kts 14°
2026-05-05 18:09 51.38621 20.93927 13496 ft 339 kts 14°
2026-05-05 18:09 51.40875 20.94985 13129 ft 337 kts 14°
2026-05-05 18:10 51.43121 20.96039 12762 ft 336 kts 14°
2026-05-05 18:10 51.45357 20.97091 12411 ft 334 kts 14°
2026-05-05 18:10 51.47582 20.98136 12059 ft 332 kts 14°
2026-05-05 18:10 51.49795 20.99179 11706 ft 331 kts 14°
2026-05-05 18:11 51.51979 21.00209 11572 ft 322 kts 14°
2026-05-05 18:11 51.54105 21.01214 11375 ft 316 kts 14°
2026-05-05 18:11 51.56212 21.02208 11048 ft 315 kts 14°
2026-05-05 18:11 51.58319 21.03203 10713 ft 315 kts 14°
2026-05-05 18:12 51.60416 21.04194 10416 ft 313 kts 13°
2026-05-05 18:12 51.62506 21.05184 10117 ft 312 kts 13°
2026-05-05 18:12 51.64586 21.06170 9807 ft 311 kts 14°
2026-05-05 18:12 51.66658 21.07152 9497 ft 309 kts 13°
2026-05-05 18:13 51.68720 21.08120 9177 ft 307 kts 11°
2026-05-05 18:13 51.70812 21.08562 8981 ft 297 kts 359°
2026-05-05 18:13 51.72824 21.08644 8828 ft 290 kts 356°
2026-05-05 18:13 51.74831 21.08671 8533 ft 289 kts 356°
2026-05-05 18:14 51.76844 21.08710 8219 ft 289 kts 357°
2026-05-05 18:14 51.78851 21.08772 7934 ft 288 kts 358°
2026-05-05 18:14 51.80851 21.08855 7645 ft 287 kts 358°
2026-05-05 18:14 51.82834 21.08950 7330 ft 284 kts 358°
2026-05-05 18:15 51.84170 21.09020 7048 ft 284 kts 358°
2026-05-05 18:15 51.86755 21.09163 6731 ft 274 kts 358°
2026-05-05 18:15 51.88637 21.09271 6555 ft 266 kts 358°
2026-05-05 18:15 51.90451 21.09376 6361 ft 258 kts 358°
2026-05-05 18:16 51.92228 21.09478 6095 ft 254 kts 358°
2026-05-05 18:16 51.93994 21.09579 5745 ft 254 kts 358°
2026-05-05 18:16 51.95773 21.09681 5306 ft 256 kts 359°
2026-05-05 18:16 51.97545 21.09785 4912 ft 253 kts 359°
2026-05-05 18:17 51.99291 21.09888 4498 ft 250 kts 359°
2026-05-05 18:17 52.01017 21.09975 4015 ft 245 kts 356°
2026-05-05 18:17 52.02629 21.09261 3297 ft 242 kts 321°
2026-05-05 18:17 52.03922 21.07619 2904 ft 233 kts 324°
2026-05-05 18:18 52.05379 21.06577 2605 ft 221 kts 332°
2026-05-05 18:18 52.06672 21.05419 2318 ft 204 kts 324°
2026-05-05 18:18 52.07872 21.04316 2074 ft 192 kts 327°
2026-05-05 18:18 52.09009 21.03325 1852 ft 178 kts 327°
2026-05-05 18:19 52.10069 21.02399 1581 ft 168 kts 326°
2026-05-05 18:19 52.11106 21.01490 1368 ft 170 kts 326°
2026-05-05 18:19 52.12143 21.00583 1111 ft 169 kts 327°
2026-05-05 18:19 52.13165 20.99669 880 ft 166 kts 328°
2026-05-05 18:20 52.14176 20.98813 635 ft 166 kts 328°
2026-05-05 18:20 52.15194 20.97912 422 ft 167 kts 330°
2026-05-05 18:20 52.16177 20.97052 338 ft 125 kts 332°
2026-05-05 18:20 52.16705 20.96597 337 ft 49 kts 332°
2026-05-05 18:21 52.16938 20.96512 336 ft 19 kts
2026-05-05 18:21 52.17024 20.96514 335 ft 4 kts
2026-05-05 18:21 52.17054 20.96517 337 ft 4 kts
2026-05-05 18:21 52.17079 20.96541 337 ft 4 kts 47°
2026-05-05 18:22 52.17095 20.96584 336 ft 6 kts 60°
2026-05-05 18:22 52.17121 20.96664 334 ft 9 kts 62°
2026-05-05 18:22 52.17148 20.96745 337 ft 7 kts 62°
2026-05-05 18:22 52.17161 20.96817 335 ft 7 kts 100°
2026-05-05 18:23 52.17128 20.96866 338 ft 7 kts 150°
2026-05-05 18:23 52.17088 20.96902 335 ft 6 kts 151°
2026-05-05 18:23 52.17049 20.96937 337 ft 6 kts 153°
2026-05-05 18:23 52.17010 20.96970 336 ft 6 kts 152°
2026-05-05 18:24 52.16972 20.97002 336 ft 6 kts 152°
2026-05-05 18:24 52.16935 20.97034 338 ft 6 kts 152°
2026-05-05 18:24 52.16898 20.97066 336 ft 6 kts 151°
2026-05-05 18:24 52.16862 20.97098 334 ft 6 kts 152°
2026-05-05 18:25 52.16827 20.97129 336 ft 6 kts 152°
2026-05-05 18:25 52.16814 20.97133 337 ft 6 kts 181°
2026-05-05 18:25 52.16793 20.97040 336 ft 6 kts 274°
2026-05-05 18:25 52.16794 20.97021 336 ft 0 kts 275°